Širvintos

Lithuania     55˚02′31″N   24˚57′11″E
temp.,
°C
wind,
m/s
gust,
m/s
humid.,
%
clouds,
%
prec.,
mm/h
press.,
hPa
HPBL,
m
29 november, sun
sun2923:00−1˚ene478495 0.1 1022539
02:00ne489679 0.2 1023426
05:00+1˚ene488795 0.2 1023650
08:00ne499192 0.2 1023442
11:00+1˚ne5780100 0.0 1022760
14:00+1˚nne4780100 0.1 1022655
17:00−1˚n4795100 0.1 1021491
20:00−1˚n379798 0.7 1021427
30 november, mon
mon3023:00−1˚n359699 0.4 1020301
02:00−2˚nnw239797 0.6 1021162
05:00−2˚nw129682 0.1 1020157
08:00−3˚w129870 0.2 102138
11:00−1˚wsw348985 0.1 1021423
14:00−1˚sw358592 0.2 1022568
17:00−1˚sw369698 0.2 1022373
20:00−1˚sw589697 0.8 1023499
1 december, tue
tue123:00−1˚ssw499395 0.3 1024433
02:00−2˚ssw499378 0.3 1024309
05:00−3˚ssw49923 0.0 1025290
08:00−3˚ssw48922 0.0 1026278
11:00−2˚s46867 0.0 1027337
14:00−1˚s36824 0.0 1028483
17:00−3˚sse359115 0.0 1029147
20:00−3˚sse379151 0.0 1030220
2 december, wed
wed223:00−3˚sse369177 0.0 1031193
02:00−4˚se249280 0.0 1031127
05:00−4˚se359095 0.0 1031146
08:00−4˚ese249087 0.0 1030115
11:00−2˚ese358335 0.0 1031275
14:00−2˚ese358238 0.0 1029283
17:00−3˚ese389060 0.0 1028216
20:00−3˚ese489568 0.0 1027250
3 december, thu
thu323:00−1˚ese379285 0.0 1026285
02:00−1˚ese369193 0.1 1025307
05:00−1˚ese3791100 0.1 1024392
08:00−2˚se479297 0.1 1024341
11:00−1˚se478986 0.1 1024445
14:00se478892 0.1 1023518
17:00−1˚se589087 0.0 1022527
20:00−1˚sse598994 0.1 1022707